Regional Weather Roundup
Issued by NWS

Home | Current Version | Previous Version | Text Only | Print | Product List | Glossary On
Versions: 1 2 3 4 5 6 7 8 9 10 11 12 13 14 15 16 17 18 19 20 21 22 23 24 25 26 27 28 29 30 31 32 33 34 35 36 37 38 39 40 41 42 43 44 45 46 47
000
ASUS46 KSEW 261910
RWRWA

WASHINGTON REGIONAL WEATHER ROUNDUP
NATIONAL WEATHER SERVICE SEATTLE WA
1100 AM PST FRI DEC 26 2014

NOTE:"FAIR" INDICATES FEW OR NO CLOUDS BELOW 12,000 FEET WITH NO
SIGNIFICANT WEATHER AND/OR OBSTRUCTIONS TO VISIBILITY.

WAZ505-507>509-262000-
SEATTLE, TACOMA, EVERETT, AND VICINITY

CITY           SKY/WX    TMP DP  RH WIND       PRES   REMARKS
EVERETT        CLOUDY    39  36  89 S7        30.37S FOG
BOEING FIELD   PTSUNNY   39  34  82 SE5       30.40R
RENTON         CLOUDY    37  35  92 S6        30.40R
SEATAC AIRPORT FOG       36  34  92 CALM      30.39R VSB 1/2
JBLM-MCCHORD   CLOUDY    37  37 100 E1        30.39S FOG
PUYALLUP       NOT AVBL
BREMERTON      CLOUDY    39  39 100 CALM      30.40S
JBLM-FT LEWIS  CLOUDY    38  38  99 VRB1      30.38R
TACOMA NARROWS PTSUNNY   40  37  89 S3        30.38R
$$

WAZ001-503-506-510-514-515-262000-
NORTH INTERIOR

CITY           SKY/WX    TMP DP  RH WIND       PRES   REMARKS
BELLINGHAM     CLOUDY    40  38  93 CALM      30.37F
FRIDAY HARBOR  CLOUDY    43  39  86 E5        30.38S
EASTSOUND      CLOUDY    43  39  87 CALM      30.36S
PORT ANGELES   CLOUDY    43  38  82 SW3       30.36S
NAS WHIDBEY    CLOUDY    45  39  79 SE9       30.38S
ARLINGTON      CLOUDY    41  36  81 SE3       30.40S
BURLINGTON     CLOUDY    41  39  93 E3        30.39S
$$

WAZ020-022-039-040-504-511-512-262000-
SOUTHWEST INTERIOR

CITY           SKY/WX    TMP DP  RH WIND       PRES   REMARKS
SHELTON        FOG       38  37  97 CALM      30.36S VSB 3/4
OLYMPIA        CLOUDY    39  36  89 CALM      30.38S
CHEHALIS       MOCLDY    43  39  87 S5        30.38S
KELSO          CLOUDY    45  39  81 S6        30.41S
VANCOUVER      CLOUDY    45  41  86 CALM      30.38S
SCAPPOOSE, OR  CLOUDY    45  42  89 CALM      30.38S FOG
PORTLAND, OR   CLOUDY    45  43  93 S3        30.39S
$$

WAZ021-516-517-262000-
WASHINGTON COAST

CITY           SKY/WX    TMP DP  RH WIND       PRES   REMARKS
FORKS          CLOUDY    44  43  96 E3        30.34S
HOQUIAM        CLOUDY    41  41 100 NE8       30.35F FOG
ASTORIA, OR    CLOUDY    47  43  86 NE5       30.35S
$$

WAZ019-023-024-040-518-519-262000-
CASCADE MOUNTAINS AND COLUMBIA GORGE

CITY           SKY/WX    TMP DP  RH WIND       PRES   REMARKS
TROUTDALE, OR  CLOUDY    46  42  86 E3        30.38S
THE DALLES, OR FAIR      42  35  76 CALM      30.36S
$$

WAZ026-027-041>044-520-521-262000-
EAST SLOPES

CITY           SKY/WX    TMP DP  RH WIND       PRES   REMARKS
OMAK           FAIR      32  24  72 S3        30.31S
WENATCHEE      FAIR      36  24  62 W8        30.31S
ELLENSBURG     FAIR      38  25  59 CALM      30.28S
YAKIMA         FAIR      39  26  59 CALM      30.32S
$$

WAZ028-034-035-262000-
COLUMBIA BASIN

CITY           SKY/WX    TMP DP  RH WIND       PRES   REMARKS
EPHRATA        FAIR      41  24  51 NE5       30.29S
MOSES LAKE     FAIR      37  25  61 CALM      30.31S
PASCO          FAIR      38  32  79 E3        30.35F
HERMISTON, OR  FAIR      38  32  79 CALM      30.35S
$$

WAZ036>038-262000-
NORTHEAST WASHINGTON

CITY           SKY/WX    TMP DP  RH WIND       PRES   REMARKS
SPOKANE GEIGER FOG       24  23  96 CALM      30.24R VSB 1/4
SPOKANE FELTS  CLOUDY    26  24  92 CALM      30.28R FOG
FAIRCHILD AFB  FAIR      31  26  81 E5        30.23S
COEURDALENE,ID CLOUDY    27  23  86 N5        30.24S
DEER PARK      CLOUDY    25  24  96 CALM      30.26S
$$

WAZ029>033-262000-
SOUTHEAST WASHINGTON

CITY           SKY/WX    TMP DP  RH WIND       PRES   REMARKS
PULLMAN        PTSUNNY   31  27  85 W9        30.26R
LEWISTON, ID   CLOUDY    37  30  75 S5        30.28S
WALLA WALLA    FAIR      40  31  70 S8        30.32S
PENDLETON, OR  FAIR      37  29  72 VRB3      30.31S
$$


USA.gov is the U.S. government's official web portal to all federal, state and local government web resources and services.